Theta_e
360 360 358 343 339 344 361 362 362 363 360 361 365 363 361 361 358 358 359 360 359 358 359 356 354 352 355 357 358 356 356 356 354 352 352 352 350 346 343 344 351 350 350
359 359 355 360 360 359 363 363 363 363 364 363 364 364 364 362 360 358 358 360 357 356 356 354 355 353 353 353 353 356 354 355 353 351 351 351 347 342 351 350 351 350 349
358 358 359 363 362 362 362 364 364 365 366 365 364 364 364 363 361 359 359 359 355 355 353 352 352 351 347 345 348 354 353 351 349 350 350 349 349 350 350 350 349 346 343
353 354 356 358 358 359 362 367 366 363 362 365 364 363 363 362 360 358 357 355 353 351 352 350 348 346 345 344 349 349 348 347 346 346 345 346 345 345 345 345 343 343 339
345 347 350 351 353 356 359 360 363 365 363 363 363 364 363 361 359 357 354 351 350 351 349 348 347 343 340 340 343 342 345 345 345 344 342 342 342 344 339 340 337 335 336
341 342 342 344 349 352 353 357 358 357 361 362 361 362 363 360 358 354 352 349 350 349 347 347 344 339 340 339 339 338 339 340 343 342 342 337 337 334 332 331 330 328 329
341 341 341 340 341 343 349 351 354 353 353 354 356 359 361 359 356 354 351 348 349 348 349 344 343 343 341 340 341 342 342 342 341 340 339 335 331 330 330 327 327 327 325
338 339 339 340 341 342 341 344 350 351 350 354 352 354 356 355 355 352 348 345 347 348 347 344 343 339 342 340 339 337 335 334 335 336 334 332 330 327 325 329 329 326 326
338 338 338 338 339 339 340 341 342 348 344 349 353 352 352 351 348 343 340 347 347 346 344 343 342 340 338 339 339 332 329 326 332 334 332 333 331 332 330 329 332 332 333
334 333 334 335 336 336 337 339 339 339 346 346 349 349 350 346 345 341 341 343 344 342 340 340 340 339 337 337 336 333 324 322 321 319 319 320 321 323 327 327 327 327 327
332 333 333 332 333 333 332 333 336 338 339 344 345 347 347 345 342 340 339 342 342 338 334 329 331 333 334 331 333 332 330 329 330 329 328 327 326 326 325 324 323 323 323
329 328 328 328 329 331 330 329 332 335 339 341 342 344 343 343 340 338 337 340 339 336 332 325 324 322 322 325 327 328 324 323 327 327 328 327 327 325 323 322 320 318 318
325 325 326 325 324 324 325 331 335 336 338 341 340 338 332 331 332 334 334 334 335 332 328 323 315 315 320 319 319 321 325 325 325 324 324 321 321 320 319 321 321 319 319
325 325 326 326 324 318 320 326 331 338 338 335 330 324 321 321 322 323 324 324 324 320 317 318 321 319 318 319 320 320 318 318 320 321 321 320 320 320 320 319 319 319 322
327 324 323 322 323 321 315 314 322 326 330 328 325 321 319 318 320 321 321 320 320 319 319 319 318 319 317 318 321 319 318 317 320 320 320 320 319 319 319 318 318 318 318
324 324 322 319 319 318 318 317 317 323 322 321 319 318 317 319 320 320 320 320 320 320 320 320 321 320 322 322 319 319 317 319 319 320 320 319 319 319 318 317 317 317 317
323 322 322 318 316 316 316 316 315 314 317 318 318 318 318 317 316 313 315 319 319 319 318 321 323 322 321 319 319 318 320 319 317 319 317 318 317 318 316 317 317 316 317
321 321 320 319 316 315 315 314 314 313 312 312 314 314 313 313 313 315 315 316 317 318 318 320 321 319 320 319 319 319 318 317 317 318 316 316 316 317 317 317 317 317 315
323 323 322 319 317 315 314 313 313 313 314 314 314 313 313 314 314 314 314 315 317 315 318 321 320 321 319 320 320 320 318 316 315 316 316 315 316 316 316 316 316 314 314
321 321 321 322 320 319 317 315 315 314 313 313 312 313 314 316 316 316 316 317 317 320 321 321 320 321 321 320 320 319 318 316 316 316 315 315 315 315 315 315 315 315 314
324 321 321 321 321 320 320 321 321 319 318 318 317 313 313 315 316 317 318 319 320 320 320 320 321 319 319 319 319 319 318 316 315 315 315 314 314 314 314 314 314 314 315
324 324 323 320 320 321 322 321 321 320 320 320 319 319 319 318 318 318 319 319 319 320 319 319 318 320 319 318 318 318 318 317 317 316 315 315 315 314 314 314 315 315 314
325 324 321 320 320 319 320 320 322 321 320 320 320 320 320 319 318 318 320 320 320 320 319 320 319 319 320 319 319 318 318 317 316 316 316 316 315 315 315 315 315 314 315
322 321 321 320 319 320 320 321 319 319 321 322 321 321 320 321 320 320 319 320 320 319 319 319 319 318 319 318 318 319 318 318 317 317 317 317 317 316 316 316 316 316 316
321 320 320 320 321 321 319 320 320 319 319 319 319 319 320 320 319 319 319 319 319 320 319 319 319 320 319 318 318 319 319 319 318 318 316 313 314 316 316 316 316 316 316
321 320 320 320 320 320 321 321 321 320 321 320 320 319 320 320 320 319 319 320 320 319 320 319 319 319 319 320 320 318 318 317 315 313 310 305 306 308 308 309 310 311 312
Wind_Speed
17 15 18 25 26 20 31 31 30 27 26 28 18 20 19 25 25 25 25 23 23 21 20 16 19 21 21 20 22 24 25 22 10 15 9 8 17 10 10 18 18 13 12
6 13 15 11 13 11 15 19 22 23 19 21 21 21 18 22 22 24 26 22 19 21 18 16 17 18 17 20 20 23 26 24 21 13 16 10 13 14 13 12 8 8 11
3 2 4 5 8 13 17 19 21 18 17 18 19 21 23 22 22 24 23 22 17 15 13 14 15 15 13 16 20 22 18 22 21 12 9 15 16 14 14 11 9 8 10
8 8 8 9 12 14 15 13 16 17 18 18 19 22 23 23 22 20 20 18 14 13 14 16 9 6 17 11 8 4 6 6 2 8 10 8 15 10 10 13 13 14 12
10 12 13 14 15 16 18 19 19 18 18 18 20 21 22 23 23 23 19 15 16 17 16 12 8 10 11 6 1 3 5 9 13 16 14 15 13 11 11 7 12 9 8
12 15 17 18 19 20 20 19 19 21 20 18 19 20 21 21 21 23 23 20 19 19 15 12 7 4 5 5 1 2 4 6 11 12 8 10 7 9 10 8 7 3 3
12 14 17 18 20 21 21 21 20 20 23 24 21 21 24 23 21 24 24 24 20 19 18 15 13 11 3 1 2 5 6 7 7 9 15 11 11 8 8 7 6 4 3
15 16 17 18 20 21 21 22 22 18 21 24 25 22 18 19 22 21 23 23 19 18 16 15 11 10 10 7 9 9 11 10 10 11 12 12 10 10 9 6 6 3 2
16 19 20 21 22 23 23 23 24 21 23 23 21 21 16 18 18 19 22 17 16 16 14 12 13 11 11 8 12 17 11 11 13 13 14 14 11 11 9 5 5 7 6
20 22 22 22 22 22 23 25 23 24 24 22 18 18 17 23 19 20 24 16 16 17 15 14 15 14 13 11 14 13 15 12 10 12 13 13 12 12 10 6 5 7 6
22 22 21 23 23 23 23 22 21 22 23 23 16 15 20 24 24 23 25 15 21 17 13 14 14 14 15 11 13 12 15 16 12 13 13 13 12 13 12 4 5 9 9
20 22 24 27 27 24 22 24 20 20 18 21 14 14 14 16 18 23 22 16 19 21 16 13 14 12 13 12 9 14 11 14 16 16 16 16 12 16 13 7 3 5 3
19 22 22 23 29 26 23 21 20 19 17 12 8 10 14 14 10 13 15 14 16 20 25 17 16 13 13 12 13 14 12 9 8 7 14 14 10 7 4 5 3 0 3
18 21 23 23 22 26 23 19 16 5 8 12 17 17 18 23 23 18 20 20 25 26 26 26 20 17 12 14 11 6 5 7 10 14 15 11 8 5 5 5 0 2 9
12 17 21 22 22 22 24 26 16 15 6 15 16 22 22 21 21 21 25 21 24 29 26 23 19 12 15 11 4 9 7 8 7 7 6 8 8 5 7 3 1 1 2
13 16 19 22 23 24 22 23 35 26 23 23 24 28 26 23 21 25 22 23 20 18 16 12 13 14 14 14 14 13 7 5 8 5 5 5 5 5 9 4 5 2 1
15 13 14 20 21 24 25 23 22 35 33 32 30 28 26 21 20 19 16 14 10 3 10 13 14 12 16 11 8 9 13 10 4 2 1 3 2 6 2 5 7 6 4
12 15 15 15 15 18 22 27 25 22 20 24 24 22 21 21 20 18 15 11 12 11 16 19 1 10 11 11 9 9 9 6 6 4 3 3 2 2 3 6 8 8 4
8 9 10 12 15 17 21 22 23 22 18 17 15 14 12 10 10 10 5 2 5 6 8 5 4 2 6 8 11 8 3 2 2 3 1 4 3 3 6 5 5 3 3
5 6 3 5 14 15 15 17 13 18 23 15 11 9 5 4 6 5 5 9 11 9 8 5 6 3 10 10 10 9 5 8 8 5 6 6 4 4 7 7 6 6 3
4 5 4 5 6 7 7 10 10 10 9 10 12 12 10 5 3 6 11 14 16 12 11 6 5 7 5 5 5 4 5 5 8 9 6 5 6 7 8 7 9 8 4
10 9 9 11 4 4 3 3 8 10 7 6 6 10 12 12 11 14 15 17 18 16 13 8 3 4 5 7 5 5 7 2 2 1 3 3 4 8 10 11 7 8 11
10 15 9 5 5 4 6 1 9 12 15 15 13 14 18 21 21 23 22 14 16 13 7 10 3 1 3 4 3 3 4 3 4 8 7 8 10 10 12 12 14 19 13
9 6 9 6 5 4 2 6 4 3 4 11 13 17 20 21 21 11 1 2 7 5 4 4 4 5 5 3 4 7 5 6 8 8 6 7 12 13 17 18 17 18 17
12 6 4 3 2 3 4 3 4 9 9 8 5 6 6 4 3 2 4 5 3 3 3 7 6 7 10 11 8 11 8 9 12 10 12 13 13 15 17 18 18 19 18
10 4 5 5 6 3 1 2 3 3 3 5 6 7 4 8 11 13 11 10 10 12 13 12 11 12 11 9 9 8 6 7 9 13 15 16 15 15 16 18 18 18 18
Wind_Direction
174 179 208 235 260 243 245 245 252 261 263 267 271 264 250 215 211 211 214 225 235 235 233 245 257 266 275 278 276 268 263 262 244 249 268 192 154 182 210 205 227 224 221
124 194 230 246 250 268 261 257 257 253 257 260 262 259 254 231 224 221 220 228 231 229 235 249 258 271 275 276 285 273 259 258 258 260 242 182 191 186 174 187 148 115 181
40 227 236 271 280 263 258 255 260 266 268 260 258 253 245 234 230 228 224 224 240 225 241 248 253 268 287 299 295 273 268 268 258 240 241 190 156 151 146 124 122 108 103
4 343 332 310 299 289 281 278 265 258 263 259 260 254 249 236 230 223 212 213 230 243 238 243 241 275 300 314 311 299 287 229 250 13 239 86 91 87 124 129 117 130 130
340 321 312 308 302 304 303 298 295 278 268 261 257 253 242 221 210 205 209 210 225 224 234 222 242 257 266 281 17 64 116 96 109 110 103 109 115 119 117 124 121 134 126
321 314 310 311 304 293 290 292 291 291 276 269 259 251 219 201 211 210 203 214 227 219 212 211 238 266 289 263 202 128 128 121 122 125 129 141 140 144 133 120 112 74 40
296 294 292 290 293 297 297 282 278 282 283 273 270 260 229 214 215 214 208 219 219 204 206 198 193 172 161 15 84 126 118 155 176 169 155 149 139 152 141 123 115 130 136
321 318 315 311 304 298 296 298 291 274 284 267 267 257 236 219 223 211 207 209 208 204 204 201 208 161 167 179 141 115 108 114 130 127 137 133 143 144 130 135 144 168 213
333 329 324 319 311 303 296 290 288 290 270 279 257 246 224 217 204 196 192 189 192 188 181 179 180 180 175 171 151 135 127 109 111 128 124 131 133 137 141 146 161 191 207
333 325 318 314 306 300 299 294 281 285 282 266 258 235 202 189 189 203 191 197 181 160 163 172 179 184 179 168 153 155 148 151 139 131 128 127 123 125 126 84 92 1 2
331 326 338 333 321 308 302 295 290 284 281 262 246 233 199 202 199 196 190 193 169 157 163 158 167 174 179 162 170 183 155 158 158 138 130 131 133 135 117 82 75 36 13
352 354 349 346 338 324 311 299 293 291 285 257 243 218 230 181 188 182 198 193 180 166 170 167 166 172 177 169 157 146 151 165 168 177 180 174 157 122 109 115 64 78 107
9 6 356 358 359 347 332 322 297 279 264 216 176 120 112 111 123 186 203 201 203 154 155 161 155 151 154 164 156 155 170 225 227 168 111 101 94 74 108 117 179 247 252
22 22 17 10 12 10 8 5 355 333 131 128 120 108 109 112 108 109 112 119 122 120 127 131 134 135 135 136 136 108 92 85 69 88 103 107 118 133 139 126 119 115 138
21 22 23 16 12 24 33 32 35 37 108 129 129 128 124 110 109 115 116 111 118 122 127 131 138 149 150 166 169 118 107 123 103 91 128 141 137 153 144 132 135 171 218
32 38 43 35 32 33 32 39 56 80 90 97 107 111 101 100 109 117 119 123 128 130 138 160 171 175 195 177 162 151 144 123 112 161 173 163 180 163 120 189 163 198 173
51 45 56 55 53 50 41 43 53 58 80 87 90 90 89 90 90 87 92 103 129 138 358 279 222 196 141 140 145 128 139 127 153 238 181 165 176 134 118 223 191 208 208
91 84 75 77 73 67 71 71 63 56 57 63 74 79 84 89 90 94 89 73 29 354 340 337 176 124 141 159 148 122 131 156 175 202 206 268 195 227 218 244 232 231 121
60 63 84 95 101 99 91 91 88 81 76 80 80 81 85 95 108 116 101 52 278 293 269 319 267 212 195 176 140 124 113 310 32 111 247 284 258 252 256 261 288 280 239
98 95 128 154 159 140 126 113 107 112 111 105 114 118 126 152 159 164 225 259 271 296 259 286 234 171 132 122 128 123 154 199 207 201 211 237 252 253 277 282 252 279 222
229 194 146 197 128 110 168 131 150 157 167 179 186 174 188 203 273 290 293 293 296 308 312 323 343 210 161 172 171 181 213 209 225 211 217 242 259 267 284 280 280 271 299
240 252 242 205 154 186 160 174 181 174 194 214 233 250 233 225 228 247 261 265 262 262 272 256 223 175 210 218 217 254 255 319 42 328 320 320 290 266 261 263 265 278 284
268 233 176 185 209 204 215 265 190 200 217 228 225 237 248 240 248 248 253 233 226 239 279 197 194 313 145 158 162 228 245 302 315 289 260 280 284 292 295 289 284 285 260
263 184 206 157 35 340 89 180 190 198 191 231 241 237 230 239 248 255 287 122 201 224 252 223 230 245 280 288 268 279 255 267 275 296 293 281 297 296 285 281 275 285 281
287 147 145 106 178 246 194 275 139 194 193 234 218 236 183 197 347 253 232 256 254 255 218 257 245 257 255 258 267 282 277 255 262 278 286 296 288 283 283 283 284 282 282
225 142 135 171 218 275 353 311 259 324 279 249 239 261 260 218 236 238 256 257 258 249 259 251 260 252 271 228 240 244 262 278 293 298 301 299 285 279 281 285 286 287 284